Weather History for KHNZ - October, 2011

Change the Weather History Date:

Sunday, October 16, 2011

  Actual Average (KTDF) Record (KTDF)
Temperature  
Mean Temperature 62 °F -  
Max Temperature 76 °F 74 °F 88 °F (1985)
Min Temperature 47 °F 47 °F 32 °F (1987)
Degree Days  
Heating Degree Days 4    
Growing Degree Days 12 (Base 50)    
Moisture  
Dew Point 36 °F    
Average Humidity 39    
Maximum Humidity 67    
Minimum Humidity 22    
Precipitation  
Precipitation 0.00 in - - ()
Sea Level Pressure  
Sea Level Pressure 30.05 in    
Wind  
Wind Speed 6 mph (SW)    
Max Wind Speed 14 mph    
Max Gust Speed 18 mph    
Visibility 10 miles    
Events      
Averages and records for this station are not official NWS values.
T = Trace of Precipitation, MM = Missing Value Source: NWS Daily Summary

Daily Weather History Graph

Daily Weather History Graph

Search for Another Location

Airport or City:

Trip Planner

Search our weather history database for the weather conditions in past years. The results will help you decide how hot, cold, wet, or windy it might be!

Date:

Astronomy

Oct. 16, 2011 Rise Set
Actual Time 7:21 AM EDT 6:37 PM EDT
Civil Twilight 6:55 AM EDT 7:02 PM EDT
Nautical Twilight 6:25 AM EDT 7:32 PM EDT
Astronomical Twilight 5:56 AM EDT 8:02 PM EDT
Moon 9:28 PM EDT (10/16) 11:30 AM EDT (10/16)
Length of Visible Light 12h 07m
Length of Day
11h 15m
Waning Gibbous, 82% of the Moon is Illuminated
Oct 16
Waning Gibbous
Oct 19
Last Quarter
Oct 26
New
Nov 2
First Quarter
Nov 10
Full

Hourly Weather History & Observations

Time (EDT) Temp. Dew Point Humidity Pressure Visibility Wind Dir Wind Speed Gust Speed Precip Events Conditions
1:15 AM 58.3 °F 32.4 °F 38% 30.03 in 10.0 mi West 4.6 mph - N/A   Clear
1:35 AM 58.1 °F 32.5 °F 38% 30.04 in 10.0 mi WNW 4.6 mph - N/A   Clear
1:55 AM 58.3 °F 32.4 °F 38% 30.04 in 10.0 mi West 4.6 mph - N/A   Clear
2:15 AM 57.4 °F 32.5 °F 39% 30.05 in 10.0 mi WSW 3.5 mph - N/A   Clear
2:35 AM 56.1 °F 33.1 °F 42% 30.04 in 10.0 mi Calm Calm - N/A   Clear
2:55 AM 55.2 °F 33.4 °F 44% 30.05 in 10.0 mi Calm Calm - N/A   Clear
3:15 AM 54.3 °F 33.8 °F 46% 30.05 in 10.0 mi Calm Calm - N/A   Clear
3:35 AM 53.8 °F 34.2 °F 47% 30.05 in 10.0 mi WSW 3.5 mph - N/A   Clear
3:55 AM 51.6 °F 35.2 °F 54% 30.05 in 10.0 mi Calm Calm - N/A   Clear
4:15 AM 52.9 °F 34.5 °F 50% 30.05 in 10.0 mi WSW 3.5 mph - N/A   Clear
4:55 AM 51.3 °F 35.2 °F 54% 30.06 in 10.0 mi SW 4.6 mph - N/A   Clear
5:15 AM 51.3 °F 35.1 °F 54% 30.07 in 10.0 mi SW 3.5 mph - N/A   Clear
5:35 AM 51.3 °F 34.9 °F 54% 30.07 in 10.0 mi SW 5.8 mph - N/A   Clear
5:55 AM 51.4 °F 34.7 °F 53% 30.07 in 10.0 mi SW 3.5 mph - N/A   Clear
6:15 AM 50.9 °F 34.7 °F 54% 30.08 in 10.0 mi SW 4.6 mph - N/A   Clear
6:35 AM 51.1 °F 34.5 °F 53% 30.08 in 10.0 mi SW 3.5 mph - N/A   Clear
7:15 AM 47.1 °F 36.7 °F 67% 30.09 in 10.0 mi SW 6.9 mph - N/A   Clear
7:35 AM 47.8 °F 36.3 °F 64% 30.10 in 10.0 mi SW 4.6 mph - N/A   Clear
7:55 AM 49.1 °F 36.5 °F 62% 30.10 in 10.0 mi SW 5.8 mph - N/A   Clear
8:15 AM 49.3 °F 38.3 °F 66% 30.11 in 10.0 mi SW 6.9 mph - N/A   Clear
8:35 AM 51.8 °F 38.7 °F 61% 30.12 in 10.0 mi SW 5.8 mph - N/A   Clear
8:55 AM 53.8 °F 38.5 °F 56% 30.12 in 10.0 mi SW 4.6 mph - N/A   Clear
9:15 AM 56.1 °F 38.5 °F 52% 30.13 in 10.0 mi West 5.8 mph - N/A   Clear
9:35 AM 58.8 °F 38.3 °F 47% 30.12 in 10.0 mi WSW 4.6 mph - N/A   Clear
9:55 AM 60.8 °F 37.9 °F 43% 30.13 in 10.0 mi West 6.9 mph - N/A   Clear
10:15 AM 62.4 °F 37.0 °F 39% 30.13 in 10.0 mi West 4.6 mph - N/A   Clear
10:35 AM 63.9 °F 37.4 °F 38% 30.14 in 10.0 mi WNW 4.6 mph - N/A   Clear
10:55 AM 64.9 °F 36.7 °F 35% 30.13 in 10.0 mi West 5.8 mph - N/A   Clear
11:15 AM 65.8 °F 37.4 °F 35% 30.12 in 10.0 mi SW 6.9 mph - N/A   Clear
11:35 AM 66.7 °F 36.5 °F 33% 30.12 in 10.0 mi WSW 6.9 mph - N/A   Clear
11:55 AM 67.5 °F 35.4 °F 31% 30.11 in 10.0 mi WSW 6.9 mph - N/A   Clear
12:15 PM 68.5 °F 35.2 °F 29% 30.11 in 10.0 mi SW 8.1 mph - N/A   Clear
12:35 PM 69.4 °F 34.7 °F 28% 30.09 in 10.0 mi SW 11.5 mph - N/A   Clear
12:55 PM 70.5 °F 35.1 °F 27% 30.09 in 10.0 mi WSW 5.8 mph - N/A   Clear
1:15 PM 71.6 °F 35.1 °F 26% 30.07 in 10.0 mi SW 9.2 mph - N/A   Clear
1:35 PM 72.3 °F 34.0 °F 25% 30.05 in 10.0 mi SSW 10.4 mph - N/A   Clear
1:55 PM 73.4 °F 34.3 °F 24% 30.04 in 10.0 mi SSW 10.4 mph - N/A   Clear
2:15 PM 74.3 °F 33.6 °F 23% 30.03 in 10.0 mi SW 11.5 mph - N/A   Clear
2:35 PM 75.0 °F 33.8 °F 22% 30.02 in 10.0 mi SW 9.2 mph - N/A   Clear
2:55 PM 75.6 °F 34.5 °F 22% 30.01 in 10.0 mi SSW 10.4 mph - N/A   Clear
3:15 PM 75.9 °F 34.3 °F 22% 30.00 in 10.0 mi SSW 11.5 mph - N/A   Clear
3:35 PM 75.9 °F 34.9 °F 22% 29.99 in 10.0 mi WSW 9.2 mph - N/A   Clear
3:55 PM 76.1 °F 36.7 °F 24% 29.99 in 10.0 mi SW 12.7 mph 17.3 mph N/A   Clear
4:15 PM 75.9 °F 37.0 °F 24% 29.98 in 10.0 mi SSW 11.5 mph 17.3 mph N/A   Clear
4:35 PM 75.9 °F 37.4 °F 25% 29.97 in 10.0 mi SSW 10.4 mph - N/A   Clear
4:55 PM 75.6 °F 37.8 °F 25% 29.97 in 10.0 mi SSW 11.5 mph 18.4 mph N/A   Clear
5:15 PM 75.2 °F 37.9 °F 26% 29.96 in 10.0 mi SSW 13.8 mph - N/A   Clear
5:35 PM 74.5 °F 39.2 °F 28% 29.95 in 10.0 mi South 9.2 mph - N/A   Clear
5:55 PM 73.6 °F 39.6 °F 29% 29.95 in 10.0 mi SSW 13.8 mph - N/A   Clear
6:15 PM 72.1 °F 39.4 °F 30% 29.94 in 10.0 mi SSW 9.2 mph - N/A   Clear
6:35 PM 70.7 °F 39.7 °F 32% 29.94 in 10.0 mi South 9.2 mph - N/A   Clear
6:55 PM 69.3 °F 40.8 °F 36% 29.94 in 10.0 mi South 6.9 mph - N/A   Clear
7:15 PM 67.5 °F 42.3 °F 40% 29.94 in 10.0 mi South 8.1 mph - N/A   Clear
7:35 PM 66.7 °F 43.0 °F 42% 29.94 in 10.0 mi South 9.2 mph - N/A   Clear
7:55 PM 66.7 °F 43.2 °F 42% 29.94 in 10.0 mi South 9.2 mph - N/A   Clear
8:15 PM 66.2 °F 43.7 °F 44% 29.95 in 10.0 mi SSW 12.7 mph - N/A   Clear
8:35 PM 66.0 °F 43.7 °F 44% 29.95 in 10.0 mi South 11.5 mph - N/A   Clear
8:55 PM 65.3 °F 43.9 °F 46% 29.95 in 10.0 mi SSW 12.7 mph 17.3 mph N/A   Clear
9:15 PM 65.1 °F 43.9 °F 46% 29.95 in 10.0 mi SSW 13.8 mph - N/A   Clear
9:35 PM 64.8 °F 43.9 °F 47% 29.95 in 10.0 mi SSW 12.7 mph - N/A   Clear
9:55 PM 64.4 °F 43.9 °F 47% 29.95 in 10.0 mi SSW 12.7 mph - N/A   Clear
10:15 PM 64.0 °F 43.9 °F 48% 29.95 in 10.0 mi SSW 11.5 mph 17.3 mph N/A   Clear
10:35 PM 63.5 °F 43.9 °F 49% 29.95 in 10.0 mi SSW 11.5 mph - N/A   Clear
10:55 PM 62.8 °F 43.9 °F 50% 29.94 in 10.0 mi SSW 10.4 mph - N/A   Clear
11:15 PM 62.2 °F 44.1 °F 51% 29.94 in 10.0 mi SSW 10.4 mph - N/A   Clear
11:35 PM 62.4 °F 43.9 °F 51% 29.93 in 10.0 mi SSW 13.8 mph 17.3 mph N/A   Clear
11:55 PM 63.9 °F 43.9 °F 48% 29.92 in 10.0 mi SSW 15.0 mph 21.9 mph N/A   Clear